Location: Freiburg+im+Breisgau
(48.0359°N, 7.8195°E)
Time: 05:58:45
(UTC+01:00)

ISS - Pass Details

Date: 05 January 2018
Orbit: 402 x 407 km, 51.6° (Epoch: 20 January)

Event Time Altitude Azimuth Distance (km) Brightness Sun altitude
Exits shadow 07:36:37 - 293° (WNW) 1,545 -1.6 -6.9°
Reaches altitude 10° 07:36:48 10° 293° (WNW) 1,470 -1.7 -6.8°
Maximum altitude 07:40:00 47° 9° (N) 547 -3.3 -6.4°
Drops below altitude 10° 07:43:12 10° 86° (E) 1,470 0.0 -5.9°
Sets 07:45:20 0° 92° (E) 2,330 1.4 -5.6°
